Time,TemperatureF,DewpointF,PressureIn,WindDirection,WindDirectionDegrees,WindSpeedMPH,WindSpeedGustMPH,Humidity,HourlyPrecipIn,Conditions,Clouds,dailyrainin,SoftwareType,DateUTC
2013-04-18 00:02:00,75.4,69.1,29.66,South,181,5.0,15.0,81,0.00,,,0.00,meteohub,2013-04-18 05:02:00,
2013-04-18 00:07:00,75.4,69.1,29.66,South,170,6.0,25.0,81,0.00,,,0.00,meteohub,2013-04-18 05:07:00,
2013-04-18 00:12:00,75.4,69.1,29.65,SE,124,5.0,25.0,81,0.00,,,0.00,meteohub,2013-04-18 05:12:00,
2013-04-18 00:17:00,75.4,68.7,29.65,SE,130,8.0,22.0,80,0.00,,,0.00,meteohub,2013-04-18 05:17:00,
2013-04-18 00:22:00,75.2,68.5,29.65,SE,130,6.0,22.0,80,0.00,,,0.00,meteohub,2013-04-18 05:22:00,
2013-04-18 00:27:00,75.2,68.5,29.66,SE,137,2.0,17.0,80,0.00,,,0.00,meteohub,2013-04-18 05:27:00,
2013-04-18 00:32:00,75.2,68.5,29.66,South,184,3.0,18.0,80,0.00,,,0.00,meteohub,2013-04-18 05:32:00,
2013-04-18 00:38:00,75.2,68.5,29.66,SSW,210,7.0,18.0,80,0.00,,,0.00,meteohub,2013-04-18 05:38:00,
2013-04-18 00:43:00,75.2,68.5,29.65,NE,42,3.0,18.0,80,0.00,,,0.00,meteohub,2013-04-18 05:43:00,
2013-04-18 00:48:00,75.2,68.5,29.66,SSE,157,4.0,16.0,80,0.00,,,0.00,meteohub,2013-04-18 05:48:00,
2013-04-18 00:53:00,75.2,68.5,29.66,South,188,3.0,16.0,80,0.00,,,0.00,meteohub,2013-04-18 05:53:00,
2013-04-18 00:58:00,75.2,68.5,29.66,North,5,2.0,16.0,80,0.00,,,0.00,meteohub,2013-04-18 05:58:00,
2013-04-18 01:03:00,75.2,68.5,29.65,SSE,161,11.0,16.0,80,0.00,,,0.00,meteohub,2013-04-18 06:03:00,
2013-04-18 01:08:00,75.2,68.5,29.65,South,169,4.0,16.0,80,0.00,,,0.00,meteohub,2013-04-18 06:08:00,
2013-04-18 01:13:00,75.0,68.0,29.65,SE,137,3.0,19.0,79,0.00,,,0.00,meteohub,2013-04-18 06:13:00,
2013-04-18 01:18:00,75.0,68.0,29.65,SSW,197,4.0,19.0,79,0.00,,,0.00,meteohub,2013-04-18 06:18:00,
2013-04-18 01:23:00,75.0,68.0,29.65,SSE,147,7.0,19.0,79,0.00,,,0.00,meteohub,2013-04-18 06:23:00,
2013-04-18 01:28:00,75.0,68.0,29.65,SSE,158,3.0,19.0,79,0.00,,,0.00,meteohub,2013-04-18 06:28:00,
2013-04-18 01:33:00,75.0,68.0,29.65,East,91,9.0,16.0,79,0.00,,,0.00,meteohub,2013-04-18 06:33:00,
2013-04-18 01:38:00,75.0,68.0,29.64,SE,135,6.0,16.0,79,0.00,,,0.00,meteohub,2013-04-18 06:38:00,
2013-04-18 01:43:00,74.8,67.8,29.65,South,182,8.0,17.0,79,0.00,,,0.00,meteohub,2013-04-18 06:43:00,
2013-04-18 01:48:00,74.8,67.8,29.65,SSE,155,2.0,17.0,79,0.00,,,0.00,meteohub,2013-04-18 06:48:00,
2013-04-18 01:53:00,74.8,67.8,29.65,SSE,154,10.0,18.0,79,0.00,,,0.00,meteohub,2013-04-18 06:53:00,
2013-04-18 01:58:00,74.8,67.8,29.65,SE,140,7.0,18.0,79,0.00,,,0.00,meteohub,2013-04-18 06:58:00,
2013-04-18 02:03:00,74.7,67.6,29.65,South,186,4.0,18.0,79,0.00,,,0.00,meteohub,2013-04-18 07:03:00,
2013-04-18 02:08:00,74.7,67.6,29.65,South,169,3.0,16.0,79,0.00,,,0.00,meteohub,2013-04-18 07:08:00,
2013-04-18 02:13:00,74.5,67.5,29.65,SE,140,7.0,16.0,79,0.00,,,0.00,meteohub,2013-04-18 07:13:00,
2013-04-18 02:18:00,74.5,67.5,29.65,SSE,160,4.0,16.0,79,0.00,,,0.00,meteohub,2013-04-18 07:18:00,
2013-04-18 02:23:00,74.5,67.5,29.65,SSW,198,1.0,16.0,79,0.00,,,0.00,meteohub,2013-04-18 07:23:00,
2013-04-18 02:28:00,74.5,67.5,29.65,SSW,209,4.0,16.0,79,0.00,,,0.00,meteohub,2013-04-18 07:28:00,
2013-04-18 02:33:00,74.3,67.3,29.64,South,186,3.0,16.0,79,0.00,,,0.00,meteohub,2013-04-18 07:33:00,
2013-04-18 02:38:00,74.3,67.6,29.64,ESE,117,2.0,13.0,80,0.00,,,0.00,meteohub,2013-04-18 07:38:00,
2013-04-18 02:43:00,74.1,67.6,29.64,SSE,157,3.0,13.0,80,0.00,,,0.00,meteohub,2013-04-18 07:43:00,
2013-04-18 02:48:00,74.1,67.6,29.64,SSE,155,2.0,13.0,80,0.00,,,0.00,meteohub,2013-04-18 07:48:00,
2013-04-18 02:53:00,74.1,67.6,29.63,SE,142,10.0,13.0,80,0.00,,,0.00,meteohub,2013-04-18 07:53:00,
2013-04-18 02:58:00,73.9,67.5,29.64,SE,127,8.0,15.0,80,0.00,,,0.00,meteohub,2013-04-18 07:58:00,
2013-04-18 03:03:00,73.9,67.5,29.63,SSW,197,3.0,15.0,80,0.00,,,0.00,meteohub,2013-04-18 08:03:00,
2013-04-18 03:08:00,73.9,67.5,29.63,South,171,11.0,18.0,80,0.00,,,0.00,meteohub,2013-04-18 08:08:00,
2013-04-18 03:13:00,73.8,67.3,29.62,SSE,150,1.0,18.0,80,0.00,,,0.00,meteohub,2013-04-18 08:13:00,
2013-04-18 03:18:00,73.8,67.3,29.62,SE,140,5.0,18.0,80,0.00,,,0.00,meteohub,2013-04-18 08:18:00,
2013-04-18 03:23:00,73.8,67.3,29.61,SSE,150,7.0,15.0,80,0.00,,,0.00,meteohub,2013-04-18 08:23:00,
2013-04-18 03:28:00,73.6,67.1,29.61,SSE,165,8.0,15.0,80,0.00,,,0.00,meteohub,2013-04-18 08:28:00,
2013-04-18 03:33:00,73.6,67.1,29.61,South,186,6.0,14.0,80,0.00,,,0.00,meteohub,2013-04-18 08:33:00,
2013-04-18 03:38:00,73.4,66.9,29.61,ENE,70,9.0,16.0,80,0.00,,,0.00,meteohub,2013-04-18 08:38:00,
2013-04-18 03:43:00,73.4,66.9,29.61,SE,135,14.0,16.0,80,0.00,,,0.00,meteohub,2013-04-18 08:43:00,
2013-04-18 03:48:00,73.4,66.9,29.60,ESE,117,5.0,16.0,80,0.00,,,0.00,meteohub,2013-04-18 08:48:00,
2013-04-18 03:53:00,73.2,66.7,29.60,ENE,61,3.0,15.0,80,0.00,,,0.00,meteohub,2013-04-18 08:53:00,
2013-04-18 03:58:00,73.2,67.1,29.60,SSW,193,6.0,16.0,81,0.00,,,0.00,meteohub,2013-04-18 08:58:00,
2013-04-18 04:03:00,73.2,67.1,29.60,SSE,167,4.0,16.0,81,0.00,,,0.00,meteohub,2013-04-18 09:03:00,
2013-04-18 04:08:00,73.2,67.1,29.60,SSW,213,3.0,18.0,81,0.00,,,0.00,meteohub,2013-04-18 09:08:00,
2013-04-18 04:13:00,73.2,67.1,29.60,SSW,201,5.0,18.0,81,0.00,,,0.00,meteohub,2013-04-18 09:13:00,
2013-04-18 04:18:00,73.2,67.1,29.59,South,185,8.0,17.0,81,0.00,,,0.00,meteohub,2013-04-18 09:18:00,
2013-04-18 04:23:00,73.2,67.1,29.59,SSE,163,2.0,15.0,81,0.00,,,0.00,meteohub,2013-04-18 09:23:00,
2013-04-18 04:28:00,73.2,67.1,29.59,South,179,6.0,18.0,81,0.00,,,0.00,meteohub,2013-04-18 09:28:00,
2013-04-18 04:33:00,73.0,66.9,29.59,WSW,243,7.0,18.0,81,0.00,,,0.00,meteohub,2013-04-18 09:33:00,
2013-04-18 04:39:00,73.0,66.9,29.59,WSW,240,9.0,18.0,81,0.00,,,0.00,meteohub,2013-04-18 09:39:00,
2013-04-18 04:44:00,73.0,66.9,29.59,SSW,211,2.0,16.0,81,0.00,,,0.00,meteohub,2013-04-18 09:44:00,
2013-04-18 04:49:00,73.0,66.9,29.59,South,182,5.0,16.0,81,0.00,,,0.00,meteohub,2013-04-18 09:49:00,
2013-04-18 04:54:00,73.0,66.9,29.59,SSW,202,4.0,16.0,81,0.00,,,0.00,meteohub,2013-04-18 09:54:00,
2013-04-18 04:59:00,73.0,66.9,29.59,ESE,120,3.0,16.0,81,0.00,,,0.00,meteohub,2013-04-18 09:59:00,
2013-04-18 05:04:00,73.0,66.9,29.59,South,173,6.0,16.0,81,0.00,,,0.00,meteohub,2013-04-18 10:04:00,
2013-04-18 05:09:00,73.0,66.9,29.59,South,189,4.0,16.0,81,0.00,,,0.00,meteohub,2013-04-18 10:09:00,
2013-04-18 05:14:00,73.0,66.9,29.59,South,177,4.0,16.0,81,0.00,,,0.00,meteohub,2013-04-18 10:14:00,
2013-04-18 05:19:00,73.0,66.9,29.59,SE,140,2.0,16.0,81,0.00,,,0.00,meteohub,2013-04-18 10:19:00,
2013-04-18 05:24:00,73.0,66.9,29.58,SSE,159,3.0,15.0,81,0.00,,,0.00,meteohub,2013-04-18 10:24:00,
2013-04-18 05:29:00,73.0,66.9,29.58,SSE,167,5.0,18.0,81,0.00,,,0.00,meteohub,2013-04-18 10:29:00,
2013-04-18 05:34:00,73.0,66.9,29.58,SW,223,3.0,18.0,81,0.00,,,0.00,meteohub,2013-04-18 10:34:00,
2013-04-18 05:39:00,72.9,66.7,29.58,ENE,75,7.0,18.0,81,0.00,,,0.00,meteohub,2013-04-18 10:39:00,
2013-04-18 05:44:00,73.0,66.9,29.58,SSE,161,8.0,14.0,81,0.00,,,0.00,meteohub,2013-04-18 10:44:00,
2013-04-18 05:49:00,73.0,66.9,29.58,South,180,8.0,15.0,81,0.00,,,0.00,meteohub,2013-04-18 10:49:00,
2013-04-18 05:54:00,73.0,66.9,29.58,SSW,204,7.0,18.0,81,0.00,,,0.00,meteohub,2013-04-18 10:54:00,
2013-04-18 05:59:00,73.0,66.9,29.58,SSE,162,6.0,18.0,81,0.00,,,0.00,meteohub,2013-04-18 10:59:00,
2013-04-18 06:04:00,73.0,66.9,29.59,SE,129,3.0,18.0,81,0.00,,,0.00,meteohub,2013-04-18 11:04:00,
2013-04-18 06:09:00,73.2,67.1,29.60,SSW,193,5.0,20.0,81,0.00,,,0.00,meteohub,2013-04-18 11:09:00,
2013-04-18 06:14:00,73.2,67.1,29.60,WSW,245,4.0,20.0,81,0.00,,,0.00,meteohub,2013-04-18 11:14:00,
2013-04-18 06:19:00,73.2,67.1,29.60,South,189,2.0,20.0,81,0.00,,,0.00,meteohub,2013-04-18 11:19:00,
2013-04-18 06:24:00,73.2,67.1,29.60,East,101,3.0,16.0,81,0.00,,,0.00,meteohub,2013-04-18 11:24:00,
2013-04-18 06:29:00,73.2,67.1,29.61,SSW,212,2.0,16.0,81,0.00,,,0.00,meteohub,2013-04-18 11:29:00,
2013-04-18 06:34:00,73.2,67.1,29.61,WSW,240,3.0,16.0,81,0.00,,,0.00,meteohub,2013-04-18 11:34:00,
2013-04-18 06:39:00,73.2,67.1,29.63,South,188,2.0,13.0,81,0.00,,,0.00,meteohub,2013-04-18 11:39:00,
2013-04-18 06:44:00,73.2,67.1,29.65,WNW,292,3.0,13.0,81,0.00,,,0.00,meteohub,2013-04-18 11:44:00,
2013-04-18 06:49:00,73.2,67.1,29.66,WSW,242,2.0,13.0,81,0.00,,,0.00,meteohub,2013-04-18 11:49:00,
2013-04-18 06:54:00,73.2,67.1,29.66,WSW,254,3.0,10.0,81,0.00,,,0.00,meteohub,2013-04-18 11:54:00,
2013-04-18 07:00:00,73.2,66.7,29.67,SW,217,2.0,10.0,80,0.00,,,0.00,meteohub,2013-04-18 12:00:00,
2013-04-18 07:05:00,73.4,66.9,29.67,SSW,194,6.0,7.0,80,0.00,,,0.00,meteohub,2013-04-18 12:05:00,
2013-04-18 07:10:00,73.6,66.7,29.67,SSW,210,5.0,10.0,79,0.00,,,0.00,meteohub,2013-04-18 12:10:00,
2013-04-18 07:15:00,73.6,66.7,29.66,South,190,3.0,10.0,79,0.00,,,0.00,meteohub,2013-04-18 12:15:00,
2013-04-18 07:20:00,73.6,67.1,29.67,SW,227,4.0,14.0,80,0.00,,,0.00,meteohub,2013-04-18 12:20:00,
2013-04-18 07:25:00,73.4,67.3,29.66,South,173,2.0,14.0,81,0.00,,,0.00,meteohub,2013-04-18 12:25:00,
2013-04-18 07:30:00,73.0,67.3,29.67,West,272,2.0,14.0,82,0.00,,,0.00,meteohub,2013-04-18 12:30:00,
2013-04-18 07:35:00,72.9,67.8,29.70,SW,227,4.0,9.0,84,0.00,,,0.00,meteohub,2013-04-18 12:35:00,
2013-04-18 07:40:00,71.4,66.0,29.70,WNW,303,2.0,9.0,83,0.00,,,0.07,meteohub,2013-04-18 12:40:00,
2013-04-18 07:45:00,69.6,64.9,29.71,West,260,4.0,15.0,85,0.07,,,0.12,meteohub,2013-04-18 12:45:00,
2013-04-18 07:50:00,68.4,64.4,29.71,North,350,1.0,15.0,87,0.12,,,0.18,meteohub,2013-04-18 12:50:00,
2013-04-18 07:55:00,67.3,63.7,29.73,North,355,2.0,15.0,88,0.18,,,0.22,meteohub,2013-04-18 12:55:00,
2013-04-18 08:00:00,66.2,62.8,29.72,West,270,7.0,7.0,89,0.22,,,0.24,meteohub,2013-04-18 13:00:00,
2013-04-18 08:05:00,65.5,62.4,29.71,West,279,7.0,7.0,90,0.36,,,0.36,meteohub,2013-04-18 13:05:00,
2013-04-18 08:10:00,64.9,62.2,29.72,West,276,0.0,7.0,91,0.40,,,0.40,meteohub,2013-04-18 13:10:00,
2013-04-18 08:15:00,64.6,62.2,29.72,West,279,0.0,7.0,92,0.52,,,0.52,meteohub,2013-04-18 13:15:00,
2013-04-18 08:20:00,64.4,62.4,29.71,NNW,329,1.0,7.0,93,0.55,,,0.55,meteohub,2013-04-18 13:20:00,
2013-04-18 08:25:00,64.0,62.1,29.72,WNW,285,3.0,4.0,93,0.56,,,0.56,meteohub,2013-04-18 13:25:00,
2013-04-18 08:30:00,63.9,62.1,29.73,West,272,2.0,7.0,94,0.59,,,0.59,meteohub,2013-04-18 13:30:00,
2013-04-18 08:35:00,63.7,61.9,29.74,NW,307,3.0,9.0,94,0.64,,,0.65,meteohub,2013-04-18 13:35:00,
2013-04-18 08:40:00,63.3,61.5,29.74,WNW,298,0.0,9.0,94,0.61,,,0.69,meteohub,2013-04-18 13:40:00,
2013-04-18 08:45:00,63.0,61.2,29.73,West,271,3.0,14.0,94,0.65,,,0.79,meteohub,2013-04-18 13:45:00,
2013-04-18 08:50:00,62.2,59.9,29.74,NW,309,5.0,14.0,92,0.66,,,0.85,meteohub,2013-04-18 13:50:00,
2013-04-18 08:55:00,61.0,58.1,29.75,WNW,292,4.0,14.0,90,0.64,,,0.86,meteohub,2013-04-18 13:55:00,
2013-04-18 09:01:00,59.9,57.2,29.76,NW,311,4.0,14.0,91,0.60,,,0.86,meteohub,2013-04-18 14:01:00,
2013-04-18 09:06:00,59.2,56.8,29.76,NNW,342,7.0,18.0,92,0.50,,,0.87,meteohub,2013-04-18 14:06:00,
2013-04-18 09:11:00,58.1,55.4,29.77,WNW,303,3.0,18.0,91,0.43,,,0.88,meteohub,2013-04-18 14:11:00,
2013-04-18 09:16:00,57.0,54.5,29.77,WNW,302,3.0,14.0,91,0.41,,,0.94,meteohub,2013-04-18 14:16:00,
2013-04-18 09:21:00,55.8,53.2,29.76,NW,309,4.0,14.0,91,0.41,,,0.96,meteohub,2013-04-18 14:21:00,
2013-04-18 09:26:00,54.7,52.2,29.75,WSW,258,9.0,14.0,91,0.38,,,0.96,meteohub,2013-04-18 14:26:00,
2013-04-18 09:31:00,54.1,51.8,29.77,WSW,244,4.0,10.0,92,0.37,,,0.97,meteohub,2013-04-18 14:31:00,
2013-04-18 09:36:00,53.8,51.8,29.77,NW,315,0.0,9.0,93,0.35,,,1.01,meteohub,2013-04-18 14:36:00,
2013-04-18 09:41:00,53.2,51.3,29.77,South,180,6.0,10.0,93,0.30,,,1.02,meteohub,2013-04-18 14:41:00,
2013-04-18 09:47:00,52.5,50.2,29.78,NW,309,2.0,10.0,92,0.24,,,1.06,meteohub,2013-04-18 14:47:00,
2013-04-18 09:52:00,52.2,50.2,29.77,NNE,23,3.0,13.0,93,0.23,,,1.07,meteohub,2013-04-18 14:52:00,
2013-04-18 09:57:00,51.6,50.0,29.75,NW,317,1.0,13.0,94,0.23,,,1.09,meteohub,2013-04-18 14:57:00,
2013-04-18 10:02:00,51.4,49.8,29.78,West,263,1.0,13.0,94,0.25,,,1.11,meteohub,2013-04-18 15:02:00,
2013-04-18 10:07:00,51.4,49.8,29.79,WNW,296,3.0,6.0,94,0.24,,,1.11,meteohub,2013-04-18 15:07:00,
2013-04-18 10:12:00,51.4,50.0,29.81,West,277,1.0,7.0,95,0.21,,,1.12,meteohub,2013-04-18 15:12:00,
2013-04-18 10:17:00,51.4,50.0,29.82,NW,304,2.0,9.0,95,0.18,,,1.12,meteohub,2013-04-18 15:17:00,
2013-04-18 10:22:00,51.3,49.8,29.81,West,274,3.0,10.0,95,0.16,,,1.12,meteohub,2013-04-18 15:22:00,
2013-04-18 10:27:00,51.3,49.8,29.81,NNW,340,2.0,10.0,95,0.15,,,1.12,meteohub,2013-04-18 15:27:00,
2013-04-18 10:32:00,51.3,49.8,29.81,NW,309,2.0,10.0,95,0.14,,,1.12,meteohub,2013-04-18 15:32:00,
2013-04-18 10:37:00,51.1,49.5,29.80,WNW,295,2.0,10.0,94,0.11,,,1.12,meteohub,2013-04-18 15:37:00,
2013-04-18 10:42:00,50.7,49.3,29.81,WNW,301,4.0,12.0,95,0.08,,,1.12,meteohub,2013-04-18 15:42:00,
2013-04-18 10:48:00,50.7,49.3,29.81,West,268,4.0,12.0,95,0.06,,,1.12,meteohub,2013-04-18 15:48:00,
2013-04-18 10:53:00,50.5,49.1,29.81,NW,304,3.0,8.0,95,0.04,,,1.12,meteohub,2013-04-18 15:53:00,
2013-04-18 10:58:00,50.4,48.7,29.82,NW,312,2.0,14.0,94,0.02,,,1.12,meteohub,2013-04-18 15:58:00,
2013-04-18 11:03:00,50.2,48.6,29.82,NNW,339,3.0,14.0,94,0.01,,,1.12,meteohub,2013-04-18 16:03:00,
2013-04-18 11:08:00,49.8,48.2,29.82,WNW,301,4.0,14.0,94,0.00,,,1.12,meteohub,2013-04-18 16:08:00,
2013-04-18 11:13:00,49.6,48.0,29.82,NW,312,3.0,10.0,94,0.00,,,1.12,meteohub,2013-04-18 16:13:00,
2013-04-18 11:18:00,49.8,48.4,29.82,WNW,300,5.0,14.0,95,0.00,,,1.12,meteohub,2013-04-18 16:18:00,
2013-04-18 11:23:00,49.6,48.0,29.83,WNW,297,5.0,14.0,94,0.01,,,1.13,meteohub,2013-04-18 16:23:00,
2013-04-18 11:28:00,49.5,47.8,29.83,West,276,3.0,14.0,94,0.01,,,1.13,meteohub,2013-04-18 16:28:00,
2013-04-18 11:33:00,49.5,47.8,29.83,NW,305,3.0,13.0,94,0.01,,,1.13,meteohub,2013-04-18 16:33:00,
2013-04-18 11:38:00,49.1,47.5,29.86,WSW,258,9.0,14.0,94,0.01,,,1.13,meteohub,2013-04-18 16:38:00,
2013-04-18 11:43:00,48.9,46.9,29.85,NNE,26,2.0,17.0,93,0.01,,,1.13,meteohub,2013-04-18 16:43:00,
2013-04-18 11:48:00,48.9,47.3,29.83,NNW,336,0.0,17.0,94,0.01,,,1.13,meteohub,2013-04-18 16:48:00,
2013-04-18 11:53:00,48.9,47.3,29.83,NW,305,2.0,17.0,94,0.01,,,1.13,meteohub,2013-04-18 16:53:00,
2013-04-18 11:58:00,48.9,47.3,29.85,WSW,252,1.0,12.0,94,0.01,,,1.13,meteohub,2013-04-18 16:58:00,
2013-04-18 12:03:00,48.9,47.3,29.86,West,278,1.0,9.0,94,0.01,,,1.13,meteohub,2013-04-18 17:03:00,
2013-04-18 12:08:00,48.7,46.8,29.86,NNE,32,4.0,9.0,93,0.01,,,1.13,meteohub,2013-04-18 17:08:00,
2013-04-18 12:13:00,48.6,46.6,29.87,West,278,1.0,14.0,93,0.01,,,1.13,meteohub,2013-04-18 17:13:00,
2013-04-18 12:18:00,48.6,46.6,29.88,NW,313,4.0,14.0,93,0.00,,,1.13,meteohub,2013-04-18 17:18:00,
2013-04-18 12:23:00,48.2,46.0,29.84,SW,224,4.0,14.0,92,0.00,,,1.13,meteohub,2013-04-18 17:23:00,
2013-04-18 12:28:00,47.8,45.9,29.84,NNE,26,2.0,11.0,93,0.00,,,1.13,meteohub,2013-04-18 17:28:00,
2013-04-18 12:33:00,47.8,45.9,29.83,NNE,21,1.0,11.0,93,0.00,,,1.13,meteohub,2013-04-18 17:33:00,
2013-04-18 12:38:00,48.0,46.4,29.83,NW,304,1.0,11.0,94,0.00,,,1.13,meteohub,2013-04-18 17:38:00,
2013-04-18 12:43:00,48.6,47.1,29.83,WSW,252,1.0,8.0,95,0.01,,,1.14,meteohub,2013-04-18 17:43:00,
2013-04-18 12:48:00,48.7,47.3,29.85,NW,306,6.0,6.0,95,0.01,,,1.14,meteohub,2013-04-18 17:48:00,
2013-04-18 12:53:00,48.7,47.1,29.86,West,265,4.0,11.0,94,0.01,,,1.14,meteohub,2013-04-18 17:53:00,
2013-04-18 12:59:00,48.6,46.9,29.92,WSW,255,3.0,11.0,94,0.01,,,1.14,meteohub,2013-04-18 17:59:00,
2013-04-18 13:04:00,48.2,46.2,29.91,NW,306,2.0,11.0,93,0.01,,,1.14,meteohub,2013-04-18 18:04:00,
2013-04-18 13:09:00,47.8,45.9,29.91,West,260,2.0,9.0,93,0.03,,,1.16,meteohub,2013-04-18 18:09:00,
2013-04-18 13:14:00,47.5,45.5,29.86,NNW,332,2.0,10.0,93,0.05,,,1.18,meteohub,2013-04-18 18:14:00,
2013-04-18 13:19:00,47.3,45.7,29.84,West,261,4.0,13.0,94,0.09,,,1.22,meteohub,2013-04-18 18:19:00,
2013-04-18 13:24:00,47.1,45.5,29.81,NNW,347,2.0,13.0,94,0.09,,,1.22,meteohub,2013-04-18 18:24:00,
2013-04-18 13:29:00,47.3,45.9,29.83,WNW,286,3.0,7.0,95,0.10,,,1.23,meteohub,2013-04-18 18:29:00,
2013-04-18 13:34:00,47.7,46.2,29.84,West,259,3.0,9.0,95,0.11,,,1.24,meteohub,2013-04-18 18:34:00,
2013-04-18 13:39:00,47.8,46.8,29.85,West,263,2.0,11.0,96,0.11,,,1.24,meteohub,2013-04-18 18:39:00,
2013-04-18 13:44:00,48.0,46.9,29.86,West,261,2.0,11.0,96,0.10,,,1.24,meteohub,2013-04-18 18:44:00,
2013-04-18 13:49:00,48.2,46.8,29.86,WNW,283,1.0,11.0,95,0.10,,,1.24,meteohub,2013-04-18 18:49:00,
2013-04-18 13:54:00,48.2,46.6,29.86,WNW,294,3.0,11.0,94,0.10,,,1.24,meteohub,2013-04-18 18:54:00,
2013-04-18 13:59:00,48.0,46.4,29.87,North,0,2.0,11.0,94,0.10,,,1.24,meteohub,2013-04-18 18:59:00,
2013-04-18 14:04:00,47.8,45.9,29.86,NW,315,1.0,17.0,93,0.09,,,1.24,meteohub,2013-04-18 19:04:00,
2013-04-18 14:09:00,48.2,46.6,29.86,WSW,249,4.0,17.0,94,0.08,,,1.24,meteohub,2013-04-18 19:09:00,
2013-04-18 14:14:00,48.9,47.5,29.85,WSW,252,4.0,17.0,95,0.03,,,1.24,meteohub,2013-04-18 19:14:00,
2013-04-18 14:19:00,49.3,47.7,29.87,NW,309,0.0,10.0,94,0.02,,,1.24,meteohub,2013-04-18 19:19:00,
2013-04-18 14:25:00,49.5,47.8,29.87,WNW,290,4.0,10.0,94,0.01,,,1.24,meteohub,2013-04-18 19:25:00,
2013-04-18 14:30:00,49.6,48.0,29.86,North,0,3.0,10.0,94,0.01,,,1.24,meteohub,2013-04-18 19:30:00,
2013-04-18 14:35:00,49.8,47.7,29.86,NW,313,7.0,11.0,92,0.00,,,1.24,meteohub,2013-04-18 19:35:00,
2013-04-18 14:40:00,49.8,47.7,29.88,West,276,3.0,11.0,92,0.00,,,1.24,meteohub,2013-04-18 19:40:00,
2013-04-18 14:45:00,49.8,47.3,29.87,NNE,22,1.0,14.0,91,0.00,,,1.24,meteohub,2013-04-18 19:45:00,
2013-04-18 14:50:00,49.8,47.7,29.85,NW,311,2.0,14.0,92,0.00,,,1.24,meteohub,2013-04-18 19:50:00,
2013-04-18 14:55:00,50.0,48.0,29.88,West,275,1.0,8.0,93,0.00,,,1.24,meteohub,2013-04-18 19:55:00,
2013-04-18 15:00:00,50.4,48.2,29.87,West,267,1.0,8.0,92,0.00,,,1.24,meteohub,2013-04-18 20:00:00,
2013-04-18 15:05:00,50.5,48.0,29.87,WNW,288,3.0,8.0,91,0.00,,,1.24,meteohub,2013-04-18 20:05:00,
2013-04-18 15:10:00,50.5,47.5,29.87,NW,313,2.0,11.0,89,0.00,,,1.24,meteohub,2013-04-18 20:10:00,
2013-04-18 15:15:00,50.5,47.5,29.87,WNW,302,2.0,11.0,89,0.00,,,1.24,meteohub,2013-04-18 20:15:00,
2013-04-18 15:20:00,50.4,46.9,29.86,WNW,284,1.0,11.0,88,0.00,,,1.24,meteohub,2013-04-18 20:20:00,
2013-04-18 15:26:00,50.2,46.2,29.88,WNW,302,3.0,9.0,86,0.00,,,1.24,meteohub,2013-04-18 20:26:00,
2013-04-18 15:31:00,49.5,44.8,29.89,West,262,3.0,12.0,84,0.00,,,1.24,meteohub,2013-04-18 20:31:00,
2013-04-18 15:36:00,49.1,45.1,29.88,West,277,7.0,12.0,86,0.00,,,1.24,meteohub,2013-04-18 20:36:00,
2013-04-18 15:41:00,48.7,45.0,29.88,NW,304,2.0,10.0,87,0.00,,,1.24,meteohub,2013-04-18 20:41:00,
2013-04-18 15:47:00,48.7,45.3,29.88,NW,321,0.0,9.0,88,0.00,,,1.24,meteohub,2013-04-18 20:47:00,
2013-04-18 15:52:00,48.7,45.3,29.88,WNW,301,4.0,8.0,88,0.00,,,1.24,meteohub,2013-04-18 20:52:00,
2013-04-18 15:57:00,48.7,45.7,29.88,West,259,5.0,8.0,89,0.00,,,1.24,meteohub,2013-04-18 20:57:00,
2013-04-18 16:02:00,48.7,45.7,29.88,West,279,9.0,9.0,89,0.00,,,1.24,meteohub,2013-04-18 21:02:00,
2013-04-18 16:07:00,48.7,45.3,29.88,NW,310,1.0,10.0,88,0.00,,,1.24,meteohub,2013-04-18 21:07:00,
2013-04-18 16:12:00,48.7,45.3,29.88,NW,317,2.0,10.0,88,0.00,,,1.24,meteohub,2013-04-18 21:12:00,
2013-04-18 16:17:00,48.7,45.0,29.88,NNW,329,4.0,10.0,87,0.00,,,1.24,meteohub,2013-04-18 21:17:00,
2013-04-18 16:22:00,48.7,44.8,29.88,WSW,256,4.0,10.0,86,0.00,,,1.24,meteohub,2013-04-18 21:22:00,
2013-04-18 16:27:00,48.7,44.4,29.88,NNW,336,1.0,10.0,85,0.00,,,1.24,meteohub,2013-04-18 21:27:00,
2013-04-18 16:32:00,48.7,44.8,29.88,NW,321,1.0,10.0,86,0.00,,,1.24,meteohub,2013-04-18 21:32:00,
2013-04-18 16:37:00,48.9,45.0,29.88,WNW,290,1.0,11.0,86,0.00,,,1.24,meteohub,2013-04-18 21:37:00,
2013-04-18 16:42:00,49.1,44.8,29.88,West,274,1.0,11.0,85,0.00,,,1.24,meteohub,2013-04-18 21:42:00,
2013-04-18 16:47:00,49.3,44.6,29.88,WNW,300,4.0,12.0,84,0.00,,,1.24,meteohub,2013-04-18 21:47:00,
2013-04-18 16:52:00,49.5,45.7,29.88,West,263,2.0,12.0,87,0.00,,,1.24,meteohub,2013-04-18 21:52:00,
2013-04-18 16:57:00,49.6,45.0,29.88,West,271,3.0,12.0,84,0.00,,,1.24,meteohub,2013-04-18 21:57:00,
2013-04-18 17:02:00,50.2,45.9,29.88,WNW,298,3.0,7.0,85,0.00,,,1.24,meteohub,2013-04-18 22:02:00,
2013-04-18 17:07:00,50.5,46.2,29.88,WNW,300,3.0,9.0,85,0.00,,,1.24,meteohub,2013-04-18 22:07:00,
2013-04-18 17:12:00,50.7,45.5,29.88,West,276,4.0,9.0,82,0.00,,,1.24,meteohub,2013-04-18 22:12:00,
2013-04-18 17:17:00,51.1,45.9,29.89,West,279,12.0,12.0,82,0.00,,,1.24,meteohub,2013-04-18 22:17:00,
2013-04-18 17:22:00,51.6,46.0,29.89,NE,34,2.0,12.0,81,0.00,,,1.24,meteohub,2013-04-18 22:22:00,
2013-04-18 17:27:00,52.0,46.0,29.89,NW,310,4.0,12.0,80,0.00,,,1.24,meteohub,2013-04-18 22:27:00,
2013-04-18 17:32:00,52.3,46.4,29.89,WNW,291,5.0,12.0,80,0.00,,,1.24,meteohub,2013-04-18 22:32:00,
2013-04-18 17:37:00,52.5,46.6,29.89,NW,320,3.0,12.0,80,0.00,,,1.24,meteohub,2013-04-18 22:37:00,
2013-04-18 17:42:00,52.9,45.9,29.89,North,355,2.0,12.0,77,0.00,,,1.24,meteohub,2013-04-18 22:42:00,
2013-04-18 17:48:00,52.9,45.9,29.90,South,175,1.0,12.0,77,0.00,,,1.24,meteohub,2013-04-18 22:48:00,
2013-04-18 17:53:00,53.1,46.8,29.90,WNW,296,2.0,9.0,79,0.00,,,1.24,meteohub,2013-04-18 22:53:00,
2013-04-18 17:58:00,53.1,46.0,29.90,NW,306,2.0,10.0,77,0.00,,,1.24,meteohub,2013-04-18 22:58:00,
2013-04-18 18:03:00,52.9,45.5,29.90,NW,316,2.0,10.0,76,0.00,,,1.24,meteohub,2013-04-18 23:03:00,
2013-04-18 18:08:00,52.9,45.9,29.90,WNW,300,3.0,6.0,77,0.00,,,1.24,meteohub,2013-04-18 23:08:00,
2013-04-18 18:13:00,52.7,45.3,29.91,North,0,2.0,6.0,76,0.00,,,1.24,meteohub,2013-04-18 23:13:00,
2013-04-18 18:18:00,52.7,45.7,29.90,NNW,330,2.0,10.0,77,0.00,,,1.24,meteohub,2013-04-18 23:18:00,
2013-04-18 18:23:00,52.7,45.7,29.90,WNW,300,1.0,10.0,77,0.00,,,1.24,meteohub,2013-04-18 23:23:00,
2013-04-18 18:28:00,52.7,46.0,29.90,West,269,2.0,10.0,78,0.00,,,1.24,meteohub,2013-04-18 23:28:00,
2013-04-18 18:33:00,52.7,45.3,29.91,North,5,0.0,6.0,76,0.00,,,1.24,meteohub,2013-04-18 23:33:00,
2013-04-18 18:38:00,52.7,44.6,29.91,WNW,282,3.0,10.0,74,0.00,,,1.24,meteohub,2013-04-18 23:38:00,
2013-04-18 18:43:00,52.5,44.4,29.91,NW,305,2.0,13.0,74,0.00,,,1.24,meteohub,2013-04-18 23:43:00,
2013-04-18 18:48:00,52.5,44.1,29.91,West,267,2.0,13.0,73,0.00,,,1.24,meteohub,2013-04-18 23:48:00,
2013-04-18 18:53:00,52.5,44.8,29.91,West,260,3.0,13.0,75,0.00,,,1.24,meteohub,2013-04-18 23:53:00,
2013-04-18 18:58:00,52.3,44.2,29.91,WNW,286,3.0,9.0,74,0.00,,,1.24,meteohub,2013-04-18 23:58:00,
2013-04-18 19:03:00,52.3,44.2,29.91,NW,315,3.0,9.0,74,0.00,,,1.24,meteohub,2013-04-19 00:03:00,
2013-04-18 19:08:00,52.2,43.3,29.92,NNW,336,2.0,9.0,72,0.00,,,0.00,meteohub,2013-04-19 00:08:00,
2013-04-18 19:14:00,52.2,43.3,29.92,NNW,327,2.0,9.0,72,0.00,,,0.00,meteohub,2013-04-19 00:14:00,
2013-04-18 19:19:00,52.0,43.2,29.92,WNW,302,4.0,10.0,72,0.00,,,0.00,meteohub,2013-04-19 00:19:00,
2013-04-18 19:24:00,51.8,43.0,29.93,WNW,291,2.0,10.0,72,0.00,,,0.00,meteohub,2013-04-19 00:24:00,
2013-04-18 19:29:00,51.6,43.0,29.93,NW,313,2.0,10.0,72,0.00,,,0.00,meteohub,2013-04-19 00:29:00,
2013-04-18 19:34:00,51.6,42.4,29.93,WNW,293,2.0,9.0,71,0.00,,,0.00,meteohub,2013-04-19 00:34:00,
2013-04-18 19:39:00,51.6,43.0,29.94,NNW,342,2.0,9.0,72,0.00,,,0.00,meteohub,2013-04-19 00:39:00,
2013-04-18 19:44:00,51.4,42.4,29.94,NNE,15,2.0,9.0,71,0.00,,,0.00,meteohub,2013-04-19 00:44:00,
2013-04-18 19:49:00,51.4,41.9,29.94,WNW,298,3.0,7.0,70,0.00,,,0.00,meteohub,2013-04-19 00:49:00,
2013-04-18 19:54:00,51.4,42.8,29.95,WNW,289,3.0,9.0,72,0.00,,,0.00,meteohub,2013-04-19 00:54:00,
2013-04-18 19:59:00,51.3,42.3,29.95,West,267,3.0,9.0,71,0.00,,,0.00,meteohub,2013-04-19 00:59:00,
2013-04-18 20:04:00,51.1,42.4,29.96,NW,313,1.0,9.0,72,0.00,,,0.00,meteohub,2013-04-19 01:04:00,
2013-04-18 20:09:00,50.9,42.3,29.96,NW,306,1.0,5.0,72,0.00,,,0.00,meteohub,2013-04-19 01:09:00,
2013-04-18 20:14:00,50.7,42.4,29.96,NW,323,1.0,6.0,73,0.00,,,0.00,meteohub,2013-04-19 01:14:00,
2013-04-18 20:19:00,50.5,41.9,29.96,WNW,299,3.0,7.0,72,0.00,,,0.00,meteohub,2013-04-19 01:19:00,
2013-04-18 20:24:00,50.5,42.3,29.97,WNW,297,4.0,11.0,73,0.00,,,0.00,meteohub,2013-04-19 01:24:00,
2013-04-18 20:29:00,50.5,41.9,29.97,WNW,303,2.0,11.0,72,0.00,,,0.00,meteohub,2013-04-19 01:29:00,
2013-04-18 20:34:00,50.4,42.1,29.97,West,259,5.0,11.0,73,0.00,,,0.00,meteohub,2013-04-19 01:34:00,
2013-04-18 20:39:00,50.2,42.3,29.98,NW,317,1.0,7.0,74,0.00,,,0.00,meteohub,2013-04-19 01:39:00,
2013-04-18 20:44:00,49.8,41.5,29.99,NW,310,4.0,8.0,73,0.00,,,0.00,meteohub,2013-04-19 01:44:00,
2013-04-18 20:49:00,49.6,41.4,29.99,NW,317,3.0,8.0,73,0.00,,,0.00,meteohub,2013-04-19 01:49:00,
2013-04-18 20:54:00,49.6,41.0,30.00,WNW,296,2.0,11.0,72,0.00,,,0.00,meteohub,2013-04-19 01:54:00,
2013-04-18 20:59:00,49.5,40.5,30.00,NW,319,1.0,11.0,71,0.00,,,0.00,meteohub,2013-04-19 01:59:00,
2013-04-18 21:04:00,49.5,40.8,30.01,NW,317,2.0,11.0,72,0.00,,,0.00,meteohub,2013-04-19 02:04:00,
2013-04-18 21:09:00,49.3,40.3,30.01,WSW,255,3.0,9.0,71,0.00,,,0.00,meteohub,2013-04-19 02:09:00,
2013-04-18 21:14:00,49.1,40.8,30.02,NW,306,3.0,9.0,73,0.00,,,0.00,meteohub,2013-04-19 02:14:00,
2013-04-18 21:19:00,48.9,40.3,30.03,WNW,289,2.0,7.0,72,0.00,,,0.00,meteohub,2013-04-19 02:19:00,
2013-04-18 21:24:00,48.7,40.5,30.03,WNW,293,2.0,7.0,73,0.00,,,0.00,meteohub,2013-04-19 02:24:00,
2013-04-18 21:29:00,48.6,39.6,30.04,NW,315,6.0,6.0,71,0.00,,,0.00,meteohub,2013-04-19 02:29:00,
2013-04-18 21:34:00,48.6,39.9,30.04,NW,307,3.0,6.0,72,0.00,,,0.00,meteohub,2013-04-19 02:34:00,
2013-04-18 21:39:00,48.4,39.4,30.04,WSW,254,3.0,11.0,71,0.00,,,0.00,meteohub,2013-04-19 02:39:00,
2013-04-18 21:44:00,48.2,39.2,30.05,NW,304,1.0,12.0,71,0.00,,,0.00,meteohub,2013-04-19 02:44:00,
2013-04-18 21:50:00,48.0,39.0,30.05,WSW,257,2.0,12.0,71,0.00,,,0.00,meteohub,2013-04-19 02:50:00,
2013-04-18 21:55:00,48.0,39.0,30.06,NW,305,2.0,12.0,71,0.00,,,0.00,meteohub,2013-04-19 02:55:00,
2013-04-18 22:00:00,47.8,38.8,30.06,West,273,4.0,10.0,71,0.00,,,0.00,meteohub,2013-04-19 03:00:00,
2013-04-18 22:05:00,47.8,39.2,30.06,WNW,299,2.0,10.0,72,0.00,,,0.00,meteohub,2013-04-19 03:05:00,
2013-04-18 22:10:00,47.7,39.0,30.07,WNW,296,1.0,10.0,72,0.00,,,0.00,meteohub,2013-04-19 03:10:00,
2013-04-18 22:15:00,47.5,38.5,30.07,North,355,2.0,10.0,71,0.00,,,0.00,meteohub,2013-04-19 03:15:00,
2013-04-18 22:20:00,47.5,38.5,30.07,West,261,2.0,10.0,71,0.00,,,0.00,meteohub,2013-04-19 03:20:00,
2013-04-18 22:25:00,47.5,38.8,30.07,West,273,4.0,10.0,72,0.00,,,0.00,meteohub,2013-04-19 03:25:00,
2013-04-18 22:30:00,47.3,38.7,30.08,West,267,1.0,9.0,72,0.00,,,0.00,meteohub,2013-04-19 03:30:00,
2013-04-18 22:35:00,47.1,38.8,30.08,WNW,296,1.0,7.0,73,0.00,,,0.00,meteohub,2013-04-19 03:35:00,
2013-04-18 22:40:00,47.1,38.8,30.09,WNW,291,1.0,6.0,73,0.00,,,0.00,meteohub,2013-04-19 03:40:00,
2013-04-18 22:45:00,46.9,38.7,30.09,NW,325,2.0,7.0,73,0.00,,,0.00,meteohub,2013-04-19 03:45:00,
2013-04-18 22:50:00,46.9,39.0,30.09,NNW,327,1.0,7.0,74,0.00,,,0.00,meteohub,2013-04-19 03:50:00,
2013-04-18 22:55:00,46.8,38.8,30.09,WNW,291,2.0,7.0,74,0.00,,,0.00,meteohub,2013-04-19 03:55:00,
2013-04-18 23:00:00,46.8,38.5,30.09,North,5,2.0,5.0,73,0.00,,,0.00,meteohub,2013-04-19 04:00:00,
2013-04-18 23:01:00,46.8,38.3,30.09,NW,318,4.0,5.0,72,0.00,,,0.00,meteohub,2013-04-19 04:01:00,
2013-04-18 23:06:00,46.8,38.5,30.09,NNW,329,2.0,14.0,73,0.00,,,0.00,meteohub,2013-04-19 04:06:00,
2013-04-18 23:11:00,46.6,38.5,30.10,NW,317,4.0,14.0,73,0.00,,,0.00,meteohub,2013-04-19 04:11:00,
2013-04-18 23:17:00,46.6,38.5,30.10,NW,309,2.0,14.0,73,0.00,,,0.00,meteohub,2013-04-19 04:17:00,
2013-04-18 23:22:00,46.2,37.8,30.10,NW,323,1.0,7.0,72,0.00,,,0.00,meteohub,2013-04-19 04:22:00,
2013-04-18 23:27:00,46.2,37.8,30.10,WNW,287,2.0,7.0,72,0.00,,,0.00,meteohub,2013-04-19 04:27:00,
2013-04-18 23:32:00,46.0,37.6,30.10,NW,325,2.0,7.0,72,0.00,,,0.00,meteohub,2013-04-19 04:32:00,
2013-04-18 23:37:00,46.0,37.2,30.10,NW,318,1.0,7.0,71,0.00,,,0.00,meteohub,2013-04-19 04:37:00,
2013-04-18 23:42:00,45.9,37.4,30.10,NW,304,2.0,6.0,72,0.00,,,0.00,meteohub,2013-04-19 04:42:00,
2013-04-18 23:47:00,45.7,37.6,30.10,SW,235,1.0,6.0,73,0.00,,,0.00,meteohub,2013-04-19 04:47:00,
2013-04-18 23:52:00,45.5,37.4,30.11,WNW,293,2.0,6.0,73,0.00,,,0.00,meteohub,2013-04-19 04:52:00,
2013-04-18 23:57:00,45.3,37.2,30.10,West,260,0.0,5.0,73,0.00,,,0.00,meteohub,2013-04-19 04:57:00,